IRIDE-MS1-EAG2-10

导读

IRIDE-MS1-EAG2-10(NORAD编号68451)是意大利IRIDE地球观测星座的成员卫星,该项目由意大利政府通过疫情复苏计划资助,是意大利国家航天计划的重要组成部分,旨在提升本国地球观测能力,为环境监测、灾害管理和国土安全提供数据支持。 该星座由多家意大利企业参与研制,Argotec公司基于其模块化Hawk Plus平台贡献多颗卫星,截至2026年4月已有八颗卫星入轨,预计年底将完成二十颗的交付发射。2025年3月,IRIDE卫星已传回意大利半岛首幅高分辨率多光谱图像,验证了其观测能力,随着更多卫星组网,将逐步实现全运营能力,服务意大利及欧洲对地观测需求。(150字)

基本信息
目录编号:
68451
目录名称:
IRIDE-MS1-EAG2-10
国际标识:
2026-067AM
轨道中心:
EARTH
卫星名称:
IRIDE-MS1-EAG2-10
卫星全名:
IRIDE-MS1-EAG2-10
卫星状态:
在轨 (已飞行158 天)
发射日期:
2026-03-30 UTC
国别 :
意大利 (IT)
星等 :
--
轨道信息
数据来源 国际轨道数据
星历时间: 2026-09-04T03:51:11+0800
20小时前
查看轨道信息
半长轴: 6884.654km
偏心率: 0.0003572
轨道倾角: 97.458°
近地点辐角 97.143°
升交点赤经 204.274°
平近点角 263.021°
近地点: 504.057km
远地点: 508.977km
周期: 94.751分钟
每日圈数: 15.197762
详细信息
使用方式:
暂无
2D轨道图
3D轨道图
轨道高度分析图
轨道倾角分析图
轨道综合分析图
查看轨道综合分析图
交会数据列表
事件ID 空间交会对象 最接近时刻(TCA) 交会距离 交会风险概率(CRP) 交会风险指数(CRI) 操作
CDM_260901-043606-329506-845124
OBJECT E (63295)
2026-09-01T
04:36:05+0000
2.052 km
极远距离
2.71403E-6 低风险 0.44
CDM_260906-110006-329306-845121
OBJECT C (63293)
2026-09-06T
11:00:20+0000
2.178 km
极远距离
2.354513E-6 低风险 0.42